DO8TBO-15 Weather Reports


Display with metric or nautical units.
time (UTC)temp
F
wind
direction
speed
MPH
gust
MPH
rain 1hr
in
rain 24hr
in
rain mn
in
humidity
%
barometer
mb
20260509042606 40 310 1.0 3.0 0.00 0.00 0.00 1018.8
20260509041602 40 344 0.0 4.0 0.00 0.00 0.00 1018.7
20260509040559 40 0.0 2.0 0.00 0.00 0.00 1018.7
20260509035555 40 0 0.0 3.0 0.00 0.00 0.00 1018.8
20260509034550 40 0 1.0 4.0 0.00 0.00 0.00 1018.7
20260509033548 40 0.0 0.0 0.00 0.00 0.00 1018.8
20260509032544 41 0 0.0 3.0 0.00 0.00 0.00 1018.9
20260509031540 41 0 0.0 3.0 0.00 0.00 0.00 1019.0
20260509030536 41 0.0 0.0 0.00 0.00 0.00 1019.0
20260509025531 41 0.0 2.0 0.00 0.00 0.00 1018.9
20260509024528 41 0.0 2.0 0.00 0.00 0.00 1019.0
20260509023524 42 332 0.0 3.0 0.00 0.00 0.00 1018.9
20260509022520 42 0.0 2.0 0.00 0.00 0.00 1018.9
20260509021516 42 345 0.0 3.0 0.00 0.00 0.00 1018.9
20260509020613 43 0.0 0.0 0.00 0.00 0.00 1018.9
20260509015609 43 0.0 2.0 0.00 0.00 0.00 1018.8
20260509014606 43 0 0.0 2.0 0.00 0.00 0.00 1018.9
20260509012558 44 0.0 3.0 0.00 0.00 0.00 1019.0
20260509011554 44 0.0 0.0 0.00 0.00 0.00 1018.9
20260509010550 45 0.0 0.0 0.00 0.00 0.00 1018.8
20260509005547 45 0.0 0.0 0.00 0.00 0.00 1019.0
20260509004543 45 0.0 2.0 0.00 0.00 0.00 1019.2
20260509003539 46 0.0 0.0 0.00 0.00 0.00 1019.2
20260509002535 46 0.0 2.0 0.00 0.00 0.00 1019.1
20260509001532 46 0.0 3.0 0.00 0.00 0.00 1019.2
20260509000527 46 0.0 0.0 0.00 0.00 0.00 1019.2
20260508235524 46 0.0 0.0 0.00 0.00 0.00 1019.2
20260508234520 46 0.0 2.0 0.00 0.00 0.00 1019.2
20260508233516 46 0.0 2.0 0.00 0.00 0.00 1019.2
20260508232613 46 0.0 2.0 0.00 0.00 0.00 1019.2
20260508231608 46 0.0 0.0 0.00 0.00 0.00 1019.2
20260508230605 47 0.0 0.0 0.00 0.00 0.00 1019.3
20260508225602 47 0.0 0.0 0.00 0.00 0.00 1019.3
20260508224557 47 0.0 0.0 0.00 0.00 0.00 1019.3
20260508223554 47 0.0 2.0 0.00 0.00 0.00 1019.3
20260508222550 47 0.0 2.0 0.00 0.00 0.00 1019.3
20260508221546 47 0.0 0.0 0.00 0.00 0.00 1019.3
20260508220543 47 0.0 0.0 0.00 0.00 0.00 1019.3
20260508215539 47 0.0 0.0 0.00 0.00 0.00 1019.2
20260508214536 48 0.0 0.0 0.00 0.00 0.00 1019.3
20260508213532 48 0.0 2.0 0.00 0.00 0.00 1019.3
20260508212528 48 0.0 0.0 0.00 0.00 0.00 1019.3
20260508211525 48 0.0 2.0 0.00 0.00 0.00 1019.4
20260508210520 49 0.0 0.0 0.00 0.00 0.00 1019.2
20260508205517 49 90 0.0 6.0 0.00 0.00 0.00 1019.1
20260508204613 49 135 0.0 5.0 0.00 0.00 0.00 1019.1
20260508203609 49 0.0 1.0 0.00 0.00 0.00 1019.1
20260508202606 50 0.0 2.0 0.00 0.00 0.00 1019.0
20260508201602 50 0.0 1.0 0.00 0.00 0.00 1019.0
20260508200558 51 45 1.0 3.0 0.00 0.00 0.00 1018.9
20260508195554 51 90 0.0 5.0 0.00 0.01 0.00 1018.9
20260508194550 51 45 1.0 6.0 0.00 0.01 0.00 1018.8
20260508193547 51 45 0.0 4.0 0.00 0.01 0.00 1018.7
20260508192544 52 90 0.0 4.0 0.00 0.01 0.00 1018.4
20260508191539 52 6 1.0 5.0 0.00 0.01 0.00 1018.3
20260508190536 53 0 2.0 7.0 0.00 0.01 0.00 1018.2
20260508185533 53 9 1.0 5.0 0.00 0.01 0.00 1018.0
20260508184529 54 36 1.0 4.0 0.00 0.01 0.00 1017.7
20260508183525 54 45 1.0 7.0 0.00 0.01 0.00 1017.6
20260508182521 55 56 1.0 5.0 0.00 0.01 0.00 1017.6
20260508181517 56 349 0.0 4.0 0.00 0.01 0.00 1017.6
20260508180613 58 0.0 3.0 0.00 0.01 0.00 1017.5
20260508175610 60 47 2.0 7.0 0.00 0.01 0.00 1017.4
20260508174607 60 88 1.0 5.0 0.00 0.01 0.00 1017.3
20260508173603 61 77 2.0 5.0 0.00 0.01 0.00 1017.2
20260508172559 63 357 2.0 4.0 0.00 0.01 0.00 1017.2
20260508171555 63 48 0.0 4.0 0.00 0.01 0.00 1017.1
20260508170552 63 90 2.0 4.0 0.00 0.01 0.00 1017.0
20260508165547 64 5 2.0 8.0 0.00 0.01 0.00 1016.9
20260508164544 64 49 3.0 9.0 0.00 0.01 0.00 1017.0
20260508163541 65 47 2.0 8.0 0.00 0.01 0.00 1017.1
20260508162537 66 46 3.0 8.0 0.00 0.01 0.00 1017.1
20260508161533 66 54 2.0 6.0 0.00 0.01 0.00 1017.0
20260508160529 65 0 2.0 3.0 0.00 0.01 0.00 1017.0
20260508155526 68 109 2.0 6.0 0.00 0.01 0.00 1017.0
20260508154522 65 0 0.0 3.0 0.00 0.01 0.00 1016.9
20260508153518 62 0 0.0 3.0 0.00 0.01 0.00 1017.0
20260508152614 64 56 1.0 3.0 0.00 0.01 0.00 1017.1
20260508151610 64 52 2.0 5.0 0.00 0.01 0.00 1017.1
20260508150606 64 113 2.0 4.0 0.00 0.01 0.00 1017.2
20260508145603 65 158 0.0 4.0 0.00 0.01 0.00 1017.1
20260508144559 66 61 1.0 4.0 0.00 0.01 0.00 1017.2
20260508143555 65 49 1.0 4.0 0.00 0.01 0.00 1017.4
20260508142551 65 54 1.0 6.0 0.00 0.01 0.00 1017.5
20260508141548 68 180 1.0 4.0 0.00 0.01 0.00 1017.5
20260508140544 66 45 1.0 3.0 0.00 0.01 0.00 1017.6
20260508135541 65 56 1.0 6.0 0.00 0.01 0.00 1017.8
20260508134537 64 126 1.0 5.0 0.00 0.01 0.00 1017.7
20260508133533 63 13 1.0 6.0 0.00 0.01 0.00 1017.9
20260508132529 62 0 1.0 4.0 0.00 0.01 0.00 1018.0
20260508131525 62 23 0.0 4.0 0.00 0.01 0.00 1018.1
20260508130522 62 0.0 4.0 0.00 0.01 0.00 1018.1
20260508125518 62 57 1.0 4.0 0.00 0.01 0.00 1018.2
20260508124615 62 9 1.0 4.0 0.00 0.01 0.00 1018.1
20260508123610 63 19 2.0 6.0 0.00 0.01 0.00 1018.1
20260508122607 64 145 0.0 4.0 0.00 0.01 0.00 1018.2
20260508121603 63 62 2.0 6.0 0.00 0.01 0.00 1018.2
20260508120600 60 225 1.0 2.0 0.00 0.01 0.00 1018.2
20260508115556 60 21 0.0 3.0 0.00 0.01 0.00 1018.2
20260508114552 62 22 2.0 8.0 0.00 0.01 0.00 1018.1
20260508113549 64 32 1.0 4.0 0.00 0.01 0.00 1018.2
20260508112544 64 180 1.0 4.0 0.00 0.01 0.00 1018.0
20260508111541 62 39 2.0 5.0 0.00 0.01 0.00 1018.1
20260508110537 61 0.0 2.0 0.00 0.01 0.00 1018.2
20260508105533 61 45 0.0 3.0 0.00 0.01 0.00 1018.2
20260508104529 62 15 2.0 6.0 0.00 0.01 0.00 1018.2
20260508103526 62 121 2.0 5.0 0.00 0.01 0.00 1018.3
20260508102522 61 23 0.0 3.0 0.00 0.01 0.00 1018.3
20260508101519 62 90 0.0 3.0 0.00 0.01 0.00 1018.3
20260508100615 60 45 2.0 3.0 0.00 0.01 0.00 1018.3
20260508095611 60 150 1.0 4.0 0.00 0.01 0.00 1018.4
20260508094607 60 78 1.0 6.0 0.00 0.01 0.00 1018.3
20260508093604 59 86 0.0 4.0 0.00 0.01 0.00 1018.5
20260508092601 58 54 2.0 6.0 0.00 0.01 0.00 1018.5
20260508091556 58 225 0.0 3.0 0.00 0.01 0.00 1018.5
20260508090553 56 0.0 2.0 0.00 0.01 0.00 1018.6
20260508085549 55 0 1.0 4.0 0.00 0.01 0.00 1018.7
20260508084545 55 13 2.0 4.0 0.00 0.01 0.00 1018.7
20260508083542 55 0 2.0 6.0 0.00 0.01 0.00 1018.6
20260508082538 56 90 0.0 3.0 0.00 0.01 0.00 1018.5
20260508081534 55 135 0.0 4.0 0.00 0.01 0.00 1018.6
20260508080530 57 0.0 1.0 0.00 0.02 0.00 1018.5
20260508075527 58 166 1.0 4.0 0.00 0.02 0.00 1018.4
20260508074523 58 135 0.0 5.0 0.00 0.02 0.00 1018.4
20260508073519 55 68 0.0 4.0 0.00 0.02 0.00 1018.4
20260508072517 54 73 0.0 4.0 0.00 0.02 0.00 1018.4
20260508071612 54 58 1.0 5.0 0.00 0.02 0.00 1018.2
20260508070608 53 135 1.0 2.0 0.00 0.02 0.00 1018.1
20260508065605 53 125 0.0 5.0 0.00 0.02 0.00 1018.1
20260508064600 53 43 0.0 4.0 0.00 0.02 0.00 1018.0
20260508063556 51 124 1.0 5.0 0.00 0.02 0.00 1017.8
20260508062553 50 90 0.0 4.0 0.00 0.02 0.00 1017.8
20260508061550 50 45 1.0 3.0 0.00 0.02 0.00 1017.7
20260508060546 50 0.0 0.0 0.00 0.02 0.00 1017.7
20260508055541 49 0.0 2.0 0.00 0.02 0.00 1017.7
20260508054537 49 0.0 0.0 0.00 0.02 0.00 1017.7
20260508053534 48 0.0 0.0 0.00 0.02 0.00 1017.5
20260508052530 48 0.0 0.0 0.00 0.02 0.00 1017.5
20260508051526 48 0.0 2.0 0.00 0.02 0.00 1017.4
20260508050522 47 0.0 0.0 0.00 0.02 0.00 1017.3
20260508045518 47 0.0 0.0 0.00 0.04 0.00 1017.3
20260508044615 47 0.0 0.0 0.00 0.04 0.00 1017.2
20260508043611 47 0.0 0.0 0.00 0.07 0.00 1017.2